GW5660 Weather Reports


Display with metric or nautical units.
time (UTC)temp
F
wind
direction
speed
MPH
gust
MPH
rain 1hr
in
rain 24hr
in
rain mn
in
humidity
%
barometer
mb
20260507150020 68 162 11.0 17.0 0.00 0.02 0.02 51 1014.8
20260507145049 68 167 12.0 17.0 0.00 0.02 0.02 51 1014.8
20260507144020 67 165 11.0 16.0 0.00 0.02 0.02 53 1014.9
20260507143030 68 162 11.0 17.0 0.00 0.02 0.02 50 1014.8
20260507142040 68 164 12.0 17.0 0.00 0.02 0.02 48 1015.1
20260507141029 69 166 12.0 17.0 0.00 0.02 0.02 44 1015.0
20260507140020 69 166 13.0 19.0 0.00 0.02 0.02 40 1014.9
20260507135030 69 170 13.0 17.0 0.00 0.02 0.02 42 1015.1
20260507134020 70 172 13.0 22.0 0.00 0.02 0.02 43 1015.2
20260507133029 69 177 13.0 21.0 0.00 0.02 0.02 45 1015.1
20260507132042 69 185 13.0 23.0 0.00 0.02 0.02 46 1015.2
20260507131029 69 167 15.0 21.0 0.00 0.02 0.02 47 1015.3
20260507130024 69 184 13.0 19.0 0.00 0.02 0.02 48 1015.5
20260507125028 68 192 12.0 17.0 0.00 0.02 0.02 50 1015.5
20260507124020 68 196 15.0 19.0 0.00 0.02 0.02 48 1015.6
20260507123048 67 179 12.0 18.0 0.00 0.02 0.02 62 1015.5
20260507122020 66 180 11.0 18.0 0.00 0.02 0.02 68 1015.6
20260507121108 66 189 12.0 19.0 0.00 0.02 0.02 66 1015.8
20260507120020 66 181 14.0 19.0 0.00 0.02 0.02 71 1016.0
20260507115028 66 195 14.0 22.0 0.00 0.02 0.02 72 1016.0
20260507114020 65 176 12.0 18.0 0.00 0.02 0.02 73 1015.9
20260507113029 65 182 14.0 19.0 0.00 0.02 0.02 75 1015.8
20260507112020 65 196 14.0 23.0 0.00 0.02 0.02 74 1015.9
20260507111028 65 171 13.0 18.0 0.00 0.02 0.02 75 1015.9
20260507110020 65 196 13.0 19.0 0.00 0.02 0.02 74 1016.0
20260507105028 64 173 12.0 17.0 0.00 0.02 0.02 74 1015.9
20260507104020 64 168 15.0 21.0 0.00 0.02 0.02 74 1015.7
20260507103029 65 173 14.0 21.0 0.00 0.02 0.02 74 1016.1
20260507102020 65 160 12.0 17.0 0.00 0.02 0.02 77 1015.8
20260507101128 64 148 13.0 16.0 0.00 0.02 0.02 79 1015.9
20260507100020 64 164 14.0 18.0 0.00 0.02 0.02 78 1016.1
20260507095029 65 185 12.0 18.0 0.00 0.02 0.02 77 1016.5
20260507094020 65 156 11.0 17.0 0.00 0.02 0.02 75 1015.9
20260507093028 65 145 12.0 18.0 0.00 0.02 0.02 75 1015.6
20260507090020 66 124 15.0 21.0 0.00 0.02 0.02 76 1015.4
20260507085028 65 137 16.0 23.0 0.00 0.02 0.02 76 1015.6
20260507084020 64 135 14.0 23.0 0.00 0.02 0.02 81 1015.7
20260507083028 64 136 13.0 19.0 0.00 0.02 0.02 83 1015.9
20260507082020 63 144 10.0 16.0 0.00 0.02 0.02 84 1016.3
20260507081049 63 135 9.0 14.0 0.00 0.02 0.02 85 1016.4
20260507080020 63 114 13.0 18.0 0.00 0.02 0.02 86 1015.9
20260507075028 63 130 8.0 14.0 0.00 0.02 0.02 86 1016.6
20260507074020 63 137 7.0 11.0 0.00 0.02 0.02 87 1016.9
20260507073029 63 134 7.0 11.0 0.00 0.02 0.02 88 1017.1
20260507072020 63 141 9.0 13.0 0.00 0.02 0.02 88 1017.0
20260507071028 63 145 8.0 11.0 0.00 0.02 0.02 89 1017.3
20260507070020 63 155 7.0 11.0 0.00 0.02 0.02 89 1017.3
20260507065029 63 143 6.0 11.0 0.00 0.02 0.02 90 1017.2
20260507064020 62 132 5.0 8.0 0.00 0.02 0.02 91 1017.2
20260507063028 62 130 5.0 8.0 0.00 0.02 0.02 92 1017.0
20260507062100 62 99 6.0 9.0 0.00 0.02 0.02 92 1016.8
20260507061029 62 100 6.0 10.0 0.00 0.02 0.02 93 1016.4
20260507060020 61 106 7.0 11.0 0.00 0.02 0.02 93 1016.7
20260507055029 61 132 6.0 9.0 0.00 0.02 0.02 94 1016.9
20260507054020 61 138 4.0 7.0 0.00 0.02 0.02 94 1016.8
20260507053029 60 120 4.0 7.0 0.00 0.02 0.02 94 1016.8
20260507052020 60 107 5.0 10.0 0.00 0.02 0.02 94 1016.3
20260507051029 60 108 8.0 11.0 0.00 0.02 0.02 94 1015.9
20260507050020 60 97 8.0 11.0 0.00 0.02 0.02 94 1015.4
20260507045028 60 78 7.0 11.0 0.00 0.02 0.02 94 1015.5
20260507044020 60 94 7.0 9.0 0.00 0.02 0.02 94 1016.1
20260507043028 60 99 5.0 7.0 0.01 0.02 0.02 94 1016.3
20260507042020 60 104 2.0 6.0 0.01 0.02 0.02 94 1016.1
20260507041029 60 84 3.0 6.0 0.01 0.02 0.02 94 1015.9
20260507040020 60 88 4.0 8.0 0.01 0.02 0.02 94 1015.8
20260507035028 60 83 5.0 8.0 0.01 0.02 0.02 94 1015.6
20260507034020 60 82 4.0 8.0 0.01 0.02 0.02 94 1015.9
20260507033030 60 80 2.0 4.0 0.00 0.01 0.01 94 1016.1
20260507032021 60 92 2.0 3.0 0.00 0.01 0.01 94 1016.0
20260507031031 60 99 3.0 6.0 0.00 0.01 0.01 94 1015.9
20260507025030 61 97 5.0 8.0 0.00 0.01 0.01 94 1015.7
20260507024021 61 107 3.0 4.0 0.00 0.01 0.01 94 1015.6
20260507023030 61 96 5.0 7.0 0.01 0.01 0.01 93 1015.6
20260507022042 61 95 4.0 6.0 0.01 0.01 0.01 93 1015.5
20260507021031 61 100 5.0 7.0 0.01 0.01 0.01 93 1015.2
20260507020022 61 101 4.0 7.0 0.01 0.01 0.01 92 1015.2
20260507015050 61 95 4.0 6.0 0.01 0.01 0.01 92 1015.2
20260507014021 62 60 5.0 8.0 0.01 0.01 0.01 92 1015.1
20260507013031 62 111 2.0 4.0 0.00 0.00 0.00 92 1015.3
20260507012022 62 148 4.0 4.0 0.00 0.00 0.00 91 1015.4
20260507011031 62 114 3.0 6.0 0.00 0.00 0.00 91 1015.3
20260507010022 62 119 4.0 6.0 0.00 0.00 0.00 91 1015.3
20260507005030 62 132 5.0 10.0 0.00 0.00 0.00 91 1015.0
20260507004022 62 131 5.0 8.0 0.00 0.00 0.00 91 1015.0
20260507003051 62 137 6.0 10.0 0.00 0.00 0.00 91 1014.8
20260507002022 62 150 7.0 10.0 0.00 0.00 0.00 91 1015.1
20260507001030 62 146 7.0 10.0 0.00 0.00 0.00 91 1015.0
20260507000042 62 142 7.0 10.0 0.00 0.00 0.00 91 1015.3
20260506235030 62 144 7.0 10.0 0.00 0.00 0.00 91 1015.5
20260506234040 62 141 6.0 9.0 0.00 0.00 0.00 91 1015.3
20260506233030 62 146 6.0 8.0 0.00 0.00 0.00 90 1015.3
20260506232021 62 144 6.0 9.0 0.00 0.00 0.00 90 1015.5
20260506231030 62 175 4.0 8.0 0.00 0.00 0.00 90 1015.6
20260506230022 62 176 7.0 13.0 0.00 0.00 0.00 90 1015.6
20260506225031 62 172 7.0 11.0 0.00 0.00 0.00 90 1015.5
20260506224022 62 169 8.0 11.0 0.00 0.00 0.00 90 1015.4
20260506223030 62 173 8.0 15.0 0.00 0.00 0.00 90 1015.3
20260506222022 62 177 7.0 14.0 0.00 0.00 0.00 90 1015.3
20260506221031 62 175 9.0 15.0 0.00 0.00 0.00 90 1015.1
20260506220022 62 175 10.0 15.0 0.00 0.00 0.00 90 1015.1
20260506215051 62 165 10.0 17.0 0.00 0.00 0.00 90 1015.1
20260506214022 62 160 11.0 16.0 0.00 0.00 0.00 90 1015.0
20260506213030 62 167 9.0 16.0 0.00 0.00 0.00 91 1015.0
20260506212022 62 167 12.0 18.0 0.00 0.00 0.00 91 1015.0
20260506211032 62 158 12.0 18.0 0.00 0.00 0.00 91 1015.0
20260506210023 62 159 11.0 16.0 0.00 0.00 0.00 91 1014.9
20260506205030 62 156 12.0 18.0 0.00 0.00 0.00 91 1014.9
20260506204022 62 162 11.0 17.0 0.00 0.00 0.00 91 1015.0
20260506203030 62 160 11.0 18.0 0.00 0.00 0.00 91 1015.1
20260506202022 62 152 11.0 17.0 0.00 0.00 0.00 90 1015.0
20260506201031 62 149 12.0 16.0 0.00 0.00 0.00 90 1014.9
20260506200022 62 150 11.0 15.0 0.00 0.00 0.00 90 1015.1
20260506195030 62 154 10.0 16.0 0.00 0.00 0.00 90 1014.9
20260506194022 62 156 11.0 15.0 0.00 0.00 0.00 90 1014.9
20260506193031 61 152 9.0 13.0 0.00 0.00 0.00 91 1014.9
20260506192042 61 148 10.0 16.0 0.00 0.00 0.00 90 1014.7
20260506191030 61 142 9.0 14.0 0.00 0.00 0.00 90 1014.7
20260506190022 62 147 9.0 14.0 0.00 0.00 0.00 90 1014.7
20260506185030 62 145 11.0 16.0 0.00 0.00 0.00 90 1014.8
20260506184022 62 143 9.0 13.0 0.00 0.00 0.00 90 1014.9
20260506183030 62 152 10.0 15.0 0.00 0.00 0.00 90 1014.9
20260506182022 62 150 10.0 15.0 0.00 0.00 0.00 90 1014.7
20260506181029 62 149 11.0 18.0 0.00 0.00 0.00 90 1014.8
20260506180026 62 149 10.0 17.0 0.00 0.00 0.00 90 1014.8
20260506175028 62 147 11.0 17.0 0.00 0.00 0.00 89 1014.6
20260506174020 62 145 11.0 16.0 0.00 0.00 0.00 89 1014.4
20260506173029 62 148 11.0 18.0 0.00 0.00 0.00 88 1014.4
20260506172020 62 142 11.0 17.0 0.00 0.00 0.00 88 1014.4
20260506171029 63 144 13.0 18.0 0.00 0.00 0.00 87 1014.5
20260506170020 63 154 11.0 19.0 0.00 0.00 0.00 87 1014.9
20260506165029 63 144 13.0 23.0 0.00 0.00 0.00 86 1014.8
20260506164020 63 151 16.0 23.0 0.00 0.00 0.00 86 1014.7
20260506163029 63 153 15.0 22.0 0.00 0.00 0.00 86 1014.7
20260506162020 64 154 14.0 22.0 0.00 0.00 0.00 85 1014.6
20260506155029 64 150 14.0 21.0 0.00 0.00 0.00 85 1014.6
20260506154040 64 153 13.0 23.0 0.00 0.00 0.00 85 1014.6
20260506153028 64 163 15.0 21.0 0.00 0.00 0.00 85 1014.8
20260506152020 64 168 14.0 21.0 0.00 0.00 0.00 85 1015.0
20260506151048 64 155 15.0 23.0 0.00 0.00 0.00 84 1014.9